Regional Weather Roundup
Issued by NWS Northern Indiana

Home | Current Version | Previous Version | Text Only | Print | Product List | Glossary On
Versions: 1 2 3 4 5 6 7 8 9 10 11 12 13 14 15 16 17 18 19 20 21 22 23 24 25 26 27 28 29 30 31 32 33 34 35 36 37 38 39 40 41 42 43 44 45 46 47 48 49 50
000
ASUS43 KIWX 270510
RWRIWX

KIWX WEATHER ROUNDUP
NATIONAL WEATHER SERVICE NORTHERN INDIANA
1200 AM EST THU NOV 27 2014

NOTE: "FAIR" INDICATES FEW OR NO CLOUDS BELOW 12,000 FEET WITH NO
SIGNIFICANT WEATHER AND/OR OBSTRUCTIONS TO VISIBILITY.

* THESE STATIONS ARE NOT UNDER NWS QUALITY CONTROL. THEY ALSO MAY NOT
  REPORT WEATHER SUCH AS PRECIPITATION OR FOG.

INZ001>027-270600-
NORTHERN INDIANA

CITY           SKY/WX    TMP DP  RH WIND       PRES   REMARKS
GARY*          CLOUDY    31  22  71 CALM      30.17R
VALPARAISO     CLOUDY    26  20  77 CALM      30.16R
MICHIGAN CITY* CLOUDY    27  23  86 CALM      30.17R
LAPORTE*       CLOUDY    28  24  83 N3        30.16R
KNOX*          MOCLDY    23  19  87 NW3       30.15R
SOUTH BEND     CLOUDY    27  21  78 NW5       30.15R WCI  22
GOSHEN         CLOUDY    28  21  75 N3        30.12S
MONTICELLO*    CLOUDY    27  21  77 N7        30.14S WCI  20
LOGANSPORT*    CLOUDY    28  21  74 N6        30.14S WCI  22
ROCHESTER*     MOCLDY    30  23  74 N5        30.14R WCI  25
WARSAW*        CLOUDY    28  21  74 N6        30.12S WCI  22
ANGOLA*        CLOUDY    27  23  86 N3        30.10R
FORT WAYNE     CLOUDY    28  22  78 N8        30.12R WCI  20
HUNTINGTON*    CLOUDY    28  22  80 N5        30.12R WCI  22
PERU/GRISSOM   CLOUDY    28  23  84 N6        30.12R WCI  21
MARION*          N/A     28  21  76 CALM      30.12R

$$
INZ028>050-270600-
CENTRAL INDIANA

CITY           SKY/WX    TMP DP  RH WIND       PRES   REMARKS
LAFAYETTE      CLOUDY    27  20  75 N8        30.15R WCI  19
KOKOMO*        CLOUDY    28  19  69 N8        30.12R WCI  20
MUNCIE*        CLOUDY    28  22  78 N7        30.09S WCI  21
INDIANAPOLIS   CLOUDY    28  21  75 N10       30.09R WCI  19

$$
MIZ043>046-050>051-056>058-064>065-071>073-077>080-270600-
SOUTHWEST LOWER MICHIGAN

CITY           SKY/WX    TMP DP  RH WIND       PRES   REMARKS
BATTLE CREEK   CLOUDY    29  21  72 NW5       30.12R WCI  24
BENTON HARBOR  CLOUDY    27  23  85 CALM      30.15S
COLDWATER*     CLOUDY    30  25  83 N3        30.11S
HILLSDALE*     CLOUDY    29  26  88 N6        30.09R WCI  22
HOLLAND        CLOUDY    31  22  69 CALM      30.15R
GRAND RAPIDS   CLOUDY    29  21  72 N3        30.14R
KALAMAZOO      CLOUDY    28  21  75 NW7       30.13S WCI  21
STURGIS*       CLOUDY    27  23  86 CALM      30.11S
THREE RIVERS*  CLOUDY    29  24  79 NW6       30.13R WCI  23

$$
OHZ001>008-015>018-024>025-270600-
NORTHWEST OHIO

CITY           SKY/WX    TMP DP  RH WIND       PRES   REMARKS
WAUSEON*       CLOUDY    30  25  80 NW7       30.09S WCI  23
DEFIANCE       CLOUDY    31  25  78 NW7       30.11R WCI  24
FINDLAY        CLOUDY    31  26  82 NW6       30.07R WCI  25
TOLEDO EXPRESS CLOUDY    30  25  81 NW6       30.09R WCI  24
TOLEDO METCALF CLOUDY    32  25  75 NW8       30.09S WCI  25
LIMA           CLOUDY    31  26  82 N7        30.07R WCI  24

$$
AND FOR LAKE MICHIGAN COASTAL AND OPEN LAKE BUOY OBSERVATIONS

STATION/POSITION TEMP    WIND        PRES    VSBY  WAVE
                 AIR SEA DIR/SP/G                  HT/PER
                 (F)     (DEG/KT/KT) (MB)    (MI)  (FT/S)
CALUMET HARBOR    30     270/  4/  6 1020.1S
MICHIGAN CITY     28     140/  4/  5   N/A
SAINT JOSEPH      29     120/  1/  2 1021.3F
SOUTH LAKE BUOY   32 42  330/  6/ 14 1021.7S         1/ 4

$$
&&


USA.gov is the U.S. government's official web portal to all federal, state and local government web resources and services.